| Temperature (°F) | Max | Average | Min |
|---|---|---|---|
| Max Temperature | 84 | 68.77 | 54 |
| Avg Temperature | 77.25 | 61.75 | 50.3 |
| Min Temperature | 68 | 54.42 | 41 |
| Precipitation (in) | Max | Average | Min | Sum |
|---|---|---|---|---|
| Precipitation | 0 | 0 | 0 | 0 |
| Dew Point (°F) | Max | Average | Min |
|---|---|---|---|
| Dew Point | 62.17 | 53.87 | 43.34 |
| Wind (mph) | Max | Average | Min |
|---|---|---|---|
| Wind | 25 | 15.87 | 8 |
| Gust Wind | 37 | 30.09 | 20 |
| Sea Level Pressure (in) | Max | Average | Min |
|---|---|---|---|
| Sea Level Pressure | 30.26 | 29.89 | 29.26 |
| Date | Temp High/Low | Dew Pt High/Low | Humidity | Wind | Max Wind | Wind Gust | Pressure | Precip. | Condition |
|---|---|---|---|---|---|---|---|---|---|
| 6/1/2020 | 70 °F / 52 °F | 55 °F / 43 °F | 67 % | 18 mph | - | 30.22 in | 0 in | ||
| 6/2/2020 | 79 °F / 54 °F | 55 °F / 48 °F | 58 % | 14 mph | - | 30.02 in | 0 in | ||
| 6/3/2020 | 72 °F / 55 °F | 61 °F / 52 °F | 77 % | 20 mph | - | 29.65 in | 0 in | ||
| 6/4/2020 | 57 °F / 50 °F | 54 °F / 43 °F | 85 % | 21 mph | - | 29.42 in | 0 in | ||
| 6/5/2020 | 54 °F / 46 °F | 50 °F / 39 °F | 84 % | 22 mph | - | 29.27 in | 0 in | ||
| 6/6/2020 | 57 °F / 45 °F | 48 °F / 37 °F | 80 % | 25 mph | - | 29.39 in | 0 in | ||
| 6/7/2020 | 59 °F / 50 °F | 54 °F / 46 °F | 89 % | 24 mph | - | 29.6 in | 0 in | ||
| 6/8/2020 | 63 °F / 48 °F | 54 °F / 43 °F | 84 % | 17 mph | - | 29.91 in | 0 in | ||
| 6/9/2020 | 59 °F / 46 °F | 46 °F / 39 °F | 68 % | 9 mph | - | 30.09 in | 0 in | ||
| 6/10/2020 | 63 °F / 41 °F | 52 °F / 41 °F | 78 % | 15 mph | - | 30.03 in | 0 in | ||
| 6/11/2020 | 61 °F / 55 °F | 59 °F / 52 °F | 92 % | 16 mph | - | 29.89 in | 0 in | ||
| 6/12/2020 | 75 °F / 59 °F | 64 °F / 57 °F | 83 % | 14 mph | - | 29.79 in | 0 in | ||
| 6/13/2020 | 73 °F / 59 °F | 66 °F / 55 °F | 82 % | 14 mph | - | 29.84 in | 0 in | ||
| 6/14/2020 | 73 °F / 59 °F | 68 °F / 57 °F | 89 % | 10 mph | - | 29.92 in | 0 in | ||
| 6/15/2020 | 72 °F / 59 °F | 63 °F / 57 °F | 88 % | 10 mph | - | 29.98 in | 0 in | ||
| 6/16/2020 | 70 °F / 59 °F | 61 °F / 55 °F | 86 % | 8 mph | - | 29.98 in | 0 in | ||
| 6/17/2020 | 70 °F / 57 °F | 63 °F / 55 °F | 85 % | 13 mph | - | 29.92 in | 0 in | ||
| 6/18/2020 | 70 °F / 59 °F | 63 °F / 55 °F | 87 % | 10 mph | - | 29.83 in | 0 in | ||
| 6/19/2020 | 72 °F / 57 °F | 63 °F / 52 °F | 84 % | 13 mph | - | 29.95 in | 0 in | ||
| 6/20/2020 | 68 °F / 54 °F | 59 °F / 50 °F | 78 % | 13 mph | - | 30.1 in | 0 in | ||
| 6/21/2020 | 77 °F / 55 °F | 59 °F / 50 °F | 70 % | 17 mph | - | 30.06 in | 0 in | ||
| 6/22/2020 | 70 °F / 54 °F | 59 °F / 48 °F | 76 % | 14 mph | - | 30.2 in | 0 in | ||
| 6/23/2020 | 75 °F / 54 °F | 57 °F / 50 °F | 68 % | 13 mph | - | 30.26 in | 0 in | ||
| 6/24/2020 | 82 °F / 55 °F | 61 °F / 52 °F | 62 % | 17 mph | - | 30.23 in | 0 in | ||
| 6/25/2020 | 82 °F / 61 °F | 66 °F / 55 °F | 63 % | 17 mph | - | 30.1 in | 0 in | ||
| 6/26/2020 | 84 °F / 68 °F | 63 °F / 52 °F | 53 % | 14 mph | - | 29.89 in | 0 in | ||
| 6/27/2020 | 75 °F / 63 °F | 66 °F / 55 °F | 78 % | 15 mph | - | 29.74 in | 0 in | ||
| 6/28/2020 | 68 °F / 57 °F | 55 °F / 45 °F | 65 % | 24 mph | - | 29.79 in | 0 in | ||
| 6/29/2020 | 66 °F / 55 °F | 54 °F / 45 °F | 69 % | 24 mph | - | 29.75 in | 0 in | ||
| 6/30/2020 | 63 °F / 55 °F | 55 °F / 50 °F | 80 % | 23 mph | - | 29.68 in | 0 in |